Location: Puketoi
(40.5833°S, 176.0167°E)
Time: 15:29:39
(UTC+00:00)

ARIANE 5 R/B - Pass Details

Date: 08 February 2023
Orbit: 748 x 794 km, 98.8° (Epoch: 22 March)

Event Time Altitude Azimuth Distance (km) Brightness Sun altitude
Exits shadow 15:29:47 17° 16° (NNE) 1,878 4.2 -20.6°
Maximum altitude 15:33:48 89° 105° (ESE) 782 2.5 -20.0°
Drops below altitude 10° 15:39:01 10° 193° (SSW) 2,355 5.4 -19.3°
Sets 15:41:22 0° 193° (SSW) 3,298 6.2 -19.0°
